Lid_Strength_Index
7 7 4 3 3 2 1 0 -0 -0 -1 -1 -1 -1 -1 -1 -1 -1 -1 -1 -1 -1 -1 -1 -1 -1 -1 -1 -1 -1 -1 -1 -1 -1 -1 -2 -2 -2 -1 -1 -1 -1 -2
8 7 5 4 3 2 1 1 -0 -0 -0 -1 -1 -1 -1 -1 -1 -1 -1 -1 -1 -1 -1 -1 -1 -1 -1 -1 -1 -1 -1 -1 -1 -1 -1 -2 -2 -2 -1 -1 -1 -1 -1
8 8 7 3 3 2 3 2 1 0 0 0 -0 -1 -1 -1 -1 -1 -1 -1 -1 -1 -1 -1 -1 -1 -1 -1 -1 -1 -1 -1 -1 -1 -1 -0 -0 -2 -1 -1 -1 -1 -2
6 6 7 3 4 3 3 3 2 1 1 1 1 0 -1 -1 -1 -1 -1 -1 -1 -1 -1 -1 -1 -1 -1 -1 -1 -1 -1 -1 -1 -1 -0 -0 -0 -2 -1 -1 -2 -2 -2
6 6 6 3 3 3 3 3 3 2 1 2 2 1 1 -1 -1 -1 -1 -1 -1 -1 -1 -1 -1 -1 -1 -1 -1 -1 -1 -1 -1 -1 0 -0 -0 -1 -2 -2 -1 -2 -1
7 7 5 2 2 3 4 3 3 2 3 2 3 2 2 1 -1 -1 -1 -1 -1 -1 -1 -1 -1 -1 -1 -0 -1 -1 -1 -1 -1 0 -0 -1 -0 -1 -1 -1 -1 -1 -1
8 8 8 3 2 2 1 2 4 2 3 3 2 3 3 2 2 -0 -1 -1 -1 -1 -1 -1 -1 -1 -0 -0 -0 -1 -1 -1 -1 1 0 0 -0 -2 -2 -1 -1 -1 -1
8 8 8 5 4 3 2 1 2 3 3 3 3 3 4 4 3 2 1 -1 -1 -1 -1 -1 -0 -0 -0 -0 -0 0 -0 -1 -1 -0 0 -0 -1 -2 -1 -1 -1 -1 -1
9 8 8 8 6 5 4 3 2 2 3 3 3 4 4 5 4 3 3 2 -0 -1 -0 -0 -0 -0 -0 -0 0 0 0 -1 -0 0 -1 -0 -1 -1 -2 -1 -1 -1 -1
9 9 8 8 8 7 7 4 3 2 2 2 3 3 4 5 5 5 4 3 2 1 -0 -0 0 0 0 0 0 0 1 -0 -1 -1 -0 -0 -1 -2 -1 -1 -1 -1 -1
9 10 9 8 8 8 7 6 5 4 3 2 4 5 5 5 6 6 5 4 4 3 2 0 0 1 1 0 0 1 0 -1 0 -1 -1 -0 -1 -2 -1 -1 -1 -1 -1
10 9 9 8 8 8 7 7 7 7 7 5 6 7 8 7 6 5 5 5 5 4 3 2 1 1 1 -0 -0 0 -0 -0 -0 -0 -0 -1 -1 -2 -1 -1 -1 -1 -1
10 9 9 8 8 8 7 7 6 7 7 7 6 6 7 7 8 8 7 6 6 6 6 4 1 -0 -0 -0 0 0 -0 0 -0 -1 -1 -0 -1 -2 -2 -1 -1 -1 -1
10 9 9 9 8 8 7 8 7 6 6 7 8 7 7 7 9 9 9 7 6 6 7 6 5 -0 -0 -0 -0 0 -0 0 0 -0 -0 0 -1 -2 -2 -1 -1 -1 -1
10 9 9 8 8 8 8 8 7 7 6 6 6 7 8 8 8 8 9 7 7 8 6 6 6 5 0 0 -0 0 0 0 0 -0 1 -1 0 -1 -1 -2 -2 -2 -1
9 9 8 8 8 8 8 8 7 7 6 6 6 6 7 8 8 8 8 8 8 9 7 6 6 6 1 0 0 0 0 0 1 0 0 0 -0 1 -1 -1 -2 -2 -2
9 9 8 7 8 8 8 7 7 6 6 5 5 5 6 7 9 8 8 8 10 9 8 8 7 6 1 1 1 0 0 0 0 1 0 0 0 1 1 -1 -1 -1 -1
9 8 8 7 8 8 8 7 6 6 5 4 4 5 6 6 7 8 9 9 8 10 9 8 7 8 6 1 2 1 1 1 1 0 0 -0 -1 -0 1 -0 -0 -1 -1
9 8 8 8 8 8 8 8 7 6 6 5 4 6 6 5 6 7 8 9 8 8 9 9 8 8 9 5 1 1 1 1 1 0 1 -0 -0 -0 -0 0 1 1 -0
8 8 8 8 8 8 8 8 7 6 6 5 6 6 6 6 6 6 7 8 9 9 8 10 11 9 8 7 1 1 1 1 1 2 1 1 0 -0 -0 -0 -0 0 1
8 8 8 8 8 8 8 8 7 7 7 6 6 5 7 7 7 6 6 7 8 10 9 8 9 11 9 8 6 2 2 1 1 1 1 1 0 0 -0 -0 -0 -0 0
9 8 8 8 8 8 8 8 8 8 7 7 6 6 6 7 7 6 7 7 7 8 10 10 9 12 11 9 9 6 6 4 2 1 1 1 2 0 -0 -0 -0 -0 -0
9 9 8 8 8 8 7 7 7 7 7 7 6 7 6 6 6 7 7 7 7 7 9 10 10 10 12 11 10 10 6 7 4 2 2 1 2 1 1 0 -0 -0 -0
9 9 8 8 8 7 7 8 9 9 9 8 7 7 7 6 7 7 7 7 7 6 8 9 9 10 10 11 10 9 9 9 6 6 3 2 1 1 1 0 0 -0 0
10 9 9 8 8 8 8 8 8 9 9 8 7 8 7 6 6 7 7 8 8 7 7 8 9 10 10 11 12 12 11 9 6 4 6 4 2 1 1 0 0 0 -0
9 9 9 9 9 8 8 8 8 9 9 9 8 8 7 7 6 7 7 7 8 7 7 8 9 9 10 11 10 12 12 11 9 8 5 4 4 2 1 0 0 0 -0